Location: Beverley
(50.2667°N, 107.9667°W)
Time: 21:21:55
(UTC+00:00)

Envisat - Pass Details

Date: 29 January 2022
Orbit: 764 x 765 km, 98.2° (Epoch: 21 May)

Event Time Altitude Azimuth Distance (km) Brightness Sun altitude
Rises 14:04:07 0° 2° (N) 3,244 6.1 -7.6°
Reaches altitude 10° 14:07:20 10° 341° (NNW) 2,313 5.1 -7.1°
Maximum altitude 14:10:12 15° 306° (NW) 1,963 4.5 -6.7°
Drops below altitude 10° 14:13:03 10° 272° (W) 2,306 4.9 -6.3°
Sets 14:16:15 0° 250° (WSW) 3,228 5.8 -5.8°
